{"data":{"norad_id":57228,"epoch":"2026-09-19T15:29:51.679392Z","epoch_age_seconds":194731,"freshness":"STALE","line1":"1 57228U 23094L   26262.64573703  .00001594  00000+0  67449-4 0  9997","line2":"2 57228  43.0055  14.9199 0001532 273.9586  86.1091 15.27573944176788","mean_motion":15.27573944,"eccentricity":0.0001532,"inclination_deg":43.0055,"raan_deg":14.9199,"arg_perigee_deg":273.9586,"mean_anomaly_deg":86.1091,"bstar":6.7449e-5,"rev_number":17678,"period_min":94.267122430048,"perigee_km":482.01609345417,"apogee_km":484.11836643022,"semimajor_km":6861.2042299422,"source":"CELESTRAK","updated_at":"2026-09-21T09:00:33.585687Z"}}